| time (UTC) | temp C | wind direction | speed KPH | gust KPH | rain 1hr cm | rain 24hr cm | rain mn cm | humidity % | barometer mb |
| 20260507144510 | 12 | 273 | 1.6 | 14.5 | 0.00 | 0.00 | 0.00 | 59 | 1012.3 |
| 20260507143027 | 12 | 5 | 3.2 | 9.7 | 0.00 | 0.00 | 0.00 | 62 | 1012.4 |
| 20260507141521 | 11 | 43 | 3.2 | 8.0 | 0.00 | 0.03 | 0.00 | 66 | 1012.6 |
| 20260507140016 | 10 | 215 | 0.0 | 4.8 | 0.00 | 0.03 | 0.00 | 62 | 1012.7 |
| 20260507134514 | 9 | 229 | 1.6 | 4.8 | 0.00 | 0.03 | 0.00 | 64 | 1012.8 |
| 20260507133028 | 8 | 153 | 3.2 | 6.4 | 0.00 | 0.03 | 0.00 | 67 | 1012.9 |
| 20260507131528 | 8 | 169 | 3.2 | 6.4 | 0.00 | 0.03 | 0.00 | 70 | 1013.0 |
| 20260507130040 | 7 | 150 | 3.2 | 9.7 | 0.00 | 0.03 | 0.00 | 66 | 1013.1 |
| 20260507124522 | 7 | 155 | 1.6 | 9.7 | 0.00 | 0.05 | 0.00 | 66 | 1013.2 |
| 20260507123021 | 7 | 130 | 1.6 | 12.9 | 0.00 | 0.05 | 0.00 | 72 | 1013.2 |
| 20260507121518 | 7 | 78 | 1.6 | 4.8 | 0.00 | 0.08 | 0.00 | 85 | 1013.1 |
| 20260507120016 | 5 | 53 | 0.0 | 3.2 | 0.00 | 0.10 | 0.00 | 91 | 1013.4 |
| 20260507114527 | 5 | 53 | 0.0 | 3.2 | 0.00 | 0.10 | 0.00 | 91 | 1013.4 |
| 20260507113024 | 5 | 53 | 0.0 | 0.0 | 0.00 | 0.13 | 0.00 | 91 | 1013.4 |
| 20260507111526 | 5 | 53 | 0.0 | 0.0 | 0.00 | 0.15 | 0.00 | 91 | 1013.3 |
| 20260507110008 | 4 | 53 | 0.0 | 0.0 | 0.00 | 0.18 | 0.00 | 92 | 1012.9 |
| 20260507104511 | 3 | 53 | 0.0 | 0.0 | 0.00 | 0.20 | 0.00 | 92 | 1012.6 |
| 20260507103011 | 3 | 53 | 0.0 | 3.2 | 0.00 | 0.23 | 0.00 | 92 | 1012.5 |
| 20260507101510 | 4 | 32 | 0.0 | 0.0 | 0.00 | 0.25 | 0.00 | 93 | 1012.4 |
| 20260507100010 | 3 | 32 | 0.0 | 0.0 | 0.00 | 0.30 | 0.00 | 93 | 1012.5 |
| 20260507094507 | 3 | 32 | 0.0 | 0.0 | 0.00 | 0.36 | 0.00 | 93 | 1012.4 |
| 20260507093007 | 3 | 32 | 0.0 | 0.0 | 0.00 | 0.43 | 0.00 | 93 | 1012.3 |
| 20260507091509 | 3 | 32 | 0.0 | 0.0 | 0.00 | 0.48 | 0.00 | 93 | 1012.5 |
| 20260507090010 | 3 | 32 | 0.0 | 0.0 | 0.00 | 0.58 | 0.00 | 92 | 1012.4 |
| 20260507084512 | 3 | 32 | 0.0 | 0.0 | 0.00 | 0.64 | 0.00 | 92 | 1012.3 |
| 20260507083010 | 3 | 32 | 0.0 | 3.2 | 0.00 | 0.71 | 0.00 | 92 | 1012.7 |
| 20260507081511 | 3 | 32 | 0.0 | 0.0 | 0.00 | 0.76 | 0.00 | 92 | 1012.5 |
| 20260507080010 | 3 | 32 | 0.0 | 0.0 | 0.00 | 0.79 | 0.00 | 92 | 1012.5 |
| 20260507074509 | 3 | 32 | 0.0 | 0.0 | 0.00 | 0.81 | 0.00 | 92 | 1012.6 |
| 20260507073030 | 3 | 32 | 0.0 | 0.0 | 0.00 | 0.84 | 0.00 | 92 | 1012.6 |
| 20260507071523 | 3 | 32 | 0.0 | 0.0 | 0.00 | 0.86 | 0.00 | 92 | 1012.4 |
| 20260507070022 | 4 | 32 | 0.0 | 0.0 | 0.00 | 0.91 | 0.00 | 92 | 1012.4 |
| 20260507064522 | 4 | 32 | 0.0 | 0.0 | 0.00 | 0.97 | 0.00 | 91 | 1012.7 |
| 20260507063017 | 5 | 32 | 0.0 | 0.0 | 0.00 | 1.04 | 0.00 | 91 | 1013.0 |
| 20260507061529 | 5 | 32 | 0.0 | 0.0 | 0.00 | 1.09 | 0.00 | 90 | 1013.0 |
| 20260507060024 | 5 | 32 | 0.0 | 0.0 | 0.00 | 1.14 | 0.00 | 90 | 1012.8 |
| 20260507054531 | 5 | 32 | 0.0 | 0.0 | 0.00 | 1.17 | 0.00 | 90 | 1013.0 |
| 20260507053022 | 6 | 32 | 0.0 | 0.0 | 0.00 | 1.22 | 0.00 | 90 | 1013.1 |
| 20260507051522 | 6 | 32 | 0.0 | 0.0 | 0.00 | 1.30 | 0.00 | 89 | 1013.2 |
| 20260507050024 | 6 | 32 | 0.0 | 0.0 | 0.00 | 1.37 | 0.00 | 88 | 1013.3 |
| 20260507044535 | 6 | 32 | 0.0 | 0.0 | 0.00 | 1.45 | 0.00 | 87 | 1013.5 |
| 20260507043026 | 6 | 32 | 0.0 | 0.0 | 0.00 | 1.47 | 0.00 | 87 | 1013.5 |
| 20260507041531 | 6 | 32 | 0.0 | 3.2 | 0.00 | 1.63 | 0.00 | 86 | 1013.4 |
| 20260507040025 | 6 | 32 | 0.0 | 0.0 | 0.00 | 1.70 | 0.00 | 86 | 1013.2 |
| 20260507034522 | 6 | 32 | 0.0 | 3.2 | 0.00 | 1.70 | 1.70 | 86 | 1013.2 |
| 20260507033020 | 6 | 32 | 0.0 | 0.0 | 0.00 | 1.75 | 1.70 | 87 | 1013.3 |
| 20260507031525 | 6 | 32 | 0.0 | 3.2 | 0.00 | 1.75 | 1.70 | 87 | 1013.4 |
| 20260507030027 | 6 | 32 | 0.0 | 3.2 | 0.00 | 1.80 | 1.70 | 86 | 1013.4 |
| 20260507024527 | 6 | 33 | 0.0 | 3.2 | 0.00 | 1.88 | 1.70 | 87 | 1013.3 |
| 20260507023025 | 7 | 33 | 0.0 | 3.2 | 0.00 | 1.96 | 1.70 | 87 | 1013.2 |
| 20260507021525 | 6 | 34 | 0.0 | 1.6 | 0.00 | 1.98 | 1.70 | 86 | 1013.2 |
| 20260507020004 | 6 | 34 | 0.0 | 3.2 | 0.00 | 1.98 | 1.70 | 86 | 1013.4 |
| 20260507014510 | 6 | 34 | 0.0 | 3.2 | 0.00 | 1.98 | 1.70 | 86 | 1013.7 |
| 20260507013006 | 6 | 34 | 0.0 | 0.0 | 0.00 | 2.01 | 1.70 | 86 | 1013.5 |
| 20260507011509 | 6 | 34 | 0.0 | 0.0 | 0.00 | 2.03 | 1.70 | 86 | 1013.3 |
| 20260507010003 | 6 | 34 | 0.0 | 0.0 | 0.00 | 2.06 | 1.70 | 86 | 1013.1 |
| 20260507004517 | 6 | 34 | 0.0 | 0.0 | 0.00 | 2.08 | 1.70 | 84 | 1013.0 |
| 20260507003005 | 7 | 34 | 0.0 | 3.2 | 0.00 | 2.13 | 1.70 | 85 | 1012.9 |
| 20260507001503 | 7 | 34 | 0.0 | 3.2 | 0.00 | 2.24 | 1.70 | 85 | 1012.8 |
| 20260507000011 | 7 | 34 | 0.0 | 3.2 | 0.00 | 2.29 | 1.70 | 84 | 1012.4 |
| 20260506234508 | 7 | 23 | 1.6 | 3.2 | 0.00 | 2.36 | 1.70 | 84 | 1012.5 |
| 20260506233006 | 7 | 23 | 0.0 | 3.2 | 0.00 | 2.41 | 1.70 | 84 | 1012.4 |
| 20260506231522 | 7 | 36 | 1.6 | 6.4 | 0.00 | 2.46 | 1.70 | 84 | 1012.4 |
| 20260506230008 | 7 | 22 | 0.0 | 3.2 | 0.00 | 2.49 | 1.70 | 85 | 1012.2 |
| 20260506224504 | 7 | 40 | 0.0 | 4.8 | 0.00 | 2.59 | 1.70 | 86 | 1012.1 |
| 20260506223009 | 7 | 30 | 3.2 | 9.7 | 0.00 | 2.64 | 1.70 | 85 | 1011.9 |
| 20260506221508 | 7 | 26 | 1.6 | 17.7 | 0.00 | 2.72 | 1.70 | 85 | 1011.5 |
| 20260506220010 | 7 | 44 | 4.8 | 14.5 | 0.00 | 2.82 | 1.70 | 86 | 1011.2 |
| 20260506214511 | 7 | 73 | 4.8 | 12.9 | 0.00 | 2.92 | 1.70 | 87 | 1011.1 |
| 20260506213008 | 7 | 300 | 6.4 | 16.1 | 0.00 | 3.07 | 1.70 | 87 | 1011.1 |
| 20260506211514 | 7 | 344 | 4.8 | 24.1 | 0.00 | 3.17 | 1.70 | 87 | 1010.9 |
| 20260506210007 | 9 | 9 | 6.4 | 20.9 | 0.00 | 3.33 | 1.70 | 84 | 1010.6 |
| 20260506204511 | 10 | 307 | 6.4 | 16.1 | 0.00 | 3.43 | 1.70 | 85 | 1010.3 |
| 20260506203014 | 10 | 298 | 8.0 | 27.4 | 0.00 | 3.48 | 1.70 | 81 | 1010.4 |
| 20260506201520 | 11 | 340 | 3.2 | 20.9 | 0.00 | 3.51 | 1.70 | 78 | 1010.2 |
| 20260506200011 | 11 | 336 | 11.3 | 19.3 | 0.00 | 3.51 | 1.70 | 76 | 1010.2 |
| 20260506194510 | 12 | 246 | 3.2 | 17.7 | 0.00 | 3.51 | 1.70 | 73 | 1010.0 |
| 20260506193009 | 12 | 285 | 4.8 | 17.7 | 0.00 | 3.51 | 1.70 | 77 | 1010.1 |
| 20260506191511 | 11 | 263 | 6.4 | 17.7 | 0.00 | 3.51 | 1.70 | 78 | 1010.0 |
| 20260506190010 | 11 | 349 | 1.6 | 12.9 | 0.00 | 3.51 | 1.70 | 79 | 1010.0 |
| 20260506184512 | 11 | 290 | 1.6 | 6.4 | 0.00 | 3.51 | 1.70 | 80 | 1009.7 |
| 20260506183014 | 10 | 298 | 1.6 | 3.2 | 0.00 | 3.51 | 1.70 | 81 | 1009.8 |
| 20260506181511 | 10 | 298 | 0.0 | 3.2 | 0.00 | 3.51 | 1.70 | 82 | 1009.8 |
| 20260506180013 | 10 | 9 | 0.0 | 3.2 | 0.00 | 3.51 | 1.70 | 84 | 1010.0 |
| 20260506174512 | 10 | 60 | 0.0 | 3.2 | 0.00 | 3.51 | 1.70 | 84 | 1010.0 |
| 20260506173012 | 10 | 60 | 1.6 | 3.2 | 0.00 | 3.51 | 1.70 | 85 | 1010.0 |
| 20260506171513 | 10 | 60 | 0.0 | 3.2 | 0.00 | 3.51 | 1.70 | 87 | 1010.0 |
| 20260506170005 | 9 | 60 | 0.0 | 3.2 | 0.00 | 3.51 | 1.70 | 85 | 1010.1 |
| 20260506164512 | 9 | 63 | 1.6 | 3.2 | 0.00 | 3.51 | 1.70 | 87 | 1009.9 |
| 20260506163011 | 9 | 63 | 0.0 | 3.2 | 0.00 | 3.51 | 1.70 | 90 | 1009.8 |
| 20260506161510 | 9 | 5 | 1.6 | 3.2 | 0.00 | 3.51 | 1.70 | 91 | 1009.8 |
| 20260506160010 | 9 | 83 | 1.6 | 3.2 | 0.00 | 3.51 | 1.70 | 89 | 1009.8 |
| 20260506154508 | 9 | 84 | 0.0 | 3.2 | 0.00 | 3.51 | 1.70 | 87 | 1009.8 |
| 20260506153007 | 8 | 88 | 3.2 | 6.4 | 0.00 | 3.51 | 1.70 | 86 | 1009.7 |
| 20260506151511 | 8 | 170 | 1.6 | 6.4 | 0.03 | 3.51 | 1.70 | 87 | 1009.6 |
| 20260506150009 | 8 | 134 | 3.2 | 6.4 | 0.03 | 3.51 | 1.70 | 89 | 1009.6 |